Overview Statistics Trail Chart Weather Telemetry Raw packets
 

This is the latest recevied weather packets stored in our database for station/object AA6HF. If no packets are shown the sender has not sent any weather packets the latest 10 day(s).

<< 34 35 36 37 38 39 40 >>
Time Temp. Humidity Pressure Rain* Wind** Luminosity Snow
1788450727 28.33° C 24% 1009.8 hPa 0 mm - - -
1788450427 28.89° C 23% 1009.7 hPa 0 mm - - -
1788450127 28.89° C 23% 1009.7 hPa 0 mm - - -
1788449827 28.89° C 24% 1009.7 hPa 0 mm - - -
1788449527 28.33° C 26% 1009.8 hPa 0 mm - - -
1788449227 28.33° C 25% 1009.7 hPa 0 mm - - -
1788448927 27.78° C 26% 1009.7 hPa 0 mm - - -
1788448627 27.22° C 27% 1009.7 hPa 0 mm - - -
1788448327 26.67° C 30% 1009.7 hPa 0 mm - - -
1788448027 25.56° C 34% 1009.7 hPa 0 mm - - -
1788447727 24.44° C 35% 1009.7 hPa 0 mm - - -
1788447427 23.89° C 37% 1009.6 hPa 0 mm - - -
1788447127 22.78° C 40% 1009.6 hPa 0 mm - - -
1788446827 21.67° C 45% 1009.6 hPa 0 mm - - -
1788446527 20.56° C 48% 1009.5 hPa 0 mm - - -
1788446227 20° C 50% 1009.5 hPa 0 mm - - -
1788445927 20° C 53% 1009.4 hPa 0 mm - - -
1788445627 19.44° C 53% 1009.3 hPa 0 mm - - -
1788445327 18.89° C 54% 1009.3 hPa 0 mm - - -
1788445027 18.33° C 54% 1009.1 hPa 0 mm - - -
1788444727 18.33° C 56% 1009 hPa 0 mm - - -
1788444427 17.78° C 56% 1008.9 hPa 0 mm - - -
1788444127 17.78° C 55% 1008.9 hPa 0 mm - - -
1788443827 17.78° C 56% 1008.8 hPa 0 mm - - -
1788443527 17.78° C 55% 1008.8 hPa 0 mm - - -

* Rain latest hour (hover to see other rain measurements)
** Current wind speed in m/s (hover to see current wind gust speed)